Вернуться в каталог

COSMOS 1275 DEB

АктивенPO
NORAD 12782·DEBRIS·🇷🇺 Russia

Запущен Jun 4, 1981 с Plesetsk Cosmodrome

Loading…

Ближайшие Пролёты (ближайшие 24 часа)

TLE

СвежийSource: Space-Track

Эпоха: Sep 14, 2026, 08:57 UTC

1 12782U 81053DY  26257.37347867  .00000317  00000-0  31417-3 0  9994
2 12782  82.9985  41.8771 0074110 338.8929  49.4416 13.74350453245550

Отслеживайте COSMOS 1275 DEB в реальном времени с AllMySat

Download on the App Store